Regional Weather Roundup
Issued by NWS Lake Charles, LA

Home | Current Version | Previous Version | Text Only | Print | Product List | Glossary On
Versions: 1 2 3 4 5 6 7 8 9 10 11 12 13 14 15 16 17 18 19 20 21 22 23 24 25 26 27 28 29 30 31 32 33 34 35 36 37 38 39 40 41 42 43 44 45 46 47 48 49 50
371
ASUS44 KLCH 270210
RWRLCH
REGIONAL WEATHER ROUNDUP
NATIONAL WEATHER SERVICE LAKE CHARLES LA
900 PM CDT WED JUL 26 2017

Note: "fair" indicates few or no clouds below 12,000 feet with no
significant weather and/or obstructions to visibility.


ACROSS SOUTHEAST TEXAS

CITY           SKY/WX    TMP DP  RH WIND       PRES   REMARKS
BEAUMONT       CLEAR     80  75  84 S3        30.05R
BEAUMONT CITY  FAIR      82  75  81 MISG      30.05F
ORANGE         CLEAR     84  77  81 S5        30.07R
JASPER           N/A     83  78  86 CALM      30.08R
$$

ACROSS CENTRAL LOUISIANA

CITY           SKY/WX    TMP DP  RH WIND       PRES   REMARKS
LEESVILLE      CLEAR     83  75  77 S3        30.05R
FULLERTON      FAIR      79  78  97 CALM      30.03S FOG
ALEXANDRIA INT CLEAR     83  76  79 S6        30.03R
ESLER FIELD    CLEAR     80  77  90 CALM      30.05S
DERIDDER       FAIR      82  79  92 S5        30.08R
OAKDALE        CLEAR     82  75  80 S3        30.06R
OPELOUSAS      FAIR      80  75  84 S5        30.06S
$$

ACROSS SOUTHWEST AND SOUTH CENTRAL LOUISIANA

CITY           SKY/WX    TMP DP  RH WIND       PRES   REMARKS
SULPHUR        CLEAR     82  76  82 S3        30.07R
LAKE CHARLES   CLEAR     83  76  79 S5        30.06S
CHENNAULT INT  CLEAR     82  75  78 S7        30.07R
CAMERON PHI    CLEAR     84  75  74 S9        30.05S
DEQUINCY       FAIR      82  74  78 CALM      30.07R
JENNINGS       FAIR      82  76  81 SW5       30.07R
LAFAYETTE      CLEAR     83  75  77 SW5       30.07R
NEW IBERIA     CLEAR     81  76  84 W5        30.07R
ABBEVILLE      NOT AVBL
PATTERSON      CLEAR     82  78  88 W5        30.07R
SALT POINT       N/A     86  76  71 VRB5      30.05R
$$

SELECTED SITES ACROSS THE REGION

CITY           SKY/WX    TMP DP  RH WIND       PRES   REMARKS
HOUSTON BUSH   PTCLDY    87  72  60 S8        30.04R
HOUSTON HOBBY  PTCLDY    86  73  65 S6        30.04R
GALVESTON      CLEAR     84  77  79 S8        30.06R
COLLEGE STAT   CLEAR     86  71  60 S10       30.02R
CONROE         PTCLDY    86  75  69 SE7       30.03S
HUNTSVILLE     CLEAR     86  72  62 S7        30.03S
LUFKIN         CLEAR     83  75  77 S5        30.04R
SHREVEPORT     PTCLDY    86  75  69 S6        30.02R
MONROE         CLEAR     85  72  65 S5        30.04R
NATCHEZ MS     CLEAR     81  77  88 S5        30.07R
BATON ROUGE    CLEAR     82  76  81 CALM      30.05S
N.O. INTL ARPT PTCLDY    84  74  71 CALM      30.06R
SLIDELL        CLOUDY    79  75  87 CALM      30.06R
$$

MARINE REPORTS

STATION/POSITION TIME  SKY/WX   TEMP    WIND        PRES    VSBY
                                AIR SEA DIR/SP/G
                 (UTC)          (F)     (DEG/KT/KT) (MB)    (MI)
BUOY 30 S HIGH I 0050            86 87  180/ 10/ 12 1017.5
WVE H/P(F/S)=  2/ 6

SEA RIM ST PARK  0100            85     170/ 10/ 12 1018.0S
PORT ARTHUR      0148            84 88  190/  5/  9 1017.9S
SABINE PASS N    0148            84 89  180/  5/  8 1019.2R
TEXAS POINT      NOT AVBL
CALCASIEU PASS   0148               87  210/ 11/ 12 1017.2R
LK CHARLES BEACH 0148            85 85              1018.5R
MARSH ISLAND     NOT AVBL
FRESH WATER LOCK 0148            83 87  220/  4/  5 1018.3R
AMERADA PASS     0148            85 90  250/  3/  6 1018.0R
$$




USA.gov is the U.S. government's official web portal to all federal, state and local government web resources and services.